Weather History for KSUN - January, 2013

Change the Weather History Date:

Thursday, January 3, 2013

  Actual Average Record
Temperature  
Mean Temperature 18 °F -  
Max Temperature 26 °F 34 °F 46 °F (1998)
Min Temperature 10 °F 15 °F 0 °F (2011)
Degree Days  
Heating Degree Days 47    
Moisture  
Dew Point 6 °F    
Average Humidity 76    
Maximum Humidity 92    
Minimum Humidity 51    
Precipitation  
Precipitation 0.00 in - - ()
Sea Level Pressure  
Sea Level Pressure 30.34 in    
Wind  
Wind Speed 10 mph (NW)    
Max Wind Speed 14 mph    
Max Gust Speed -    
Visibility 10 miles    
Events      
Averages and records for this station are not official NWS values.
T = Trace of Precipitation, MM = Missing Value Source: NWS Daily Summary

Daily Weather History Graph

Daily Weather History Graph

Search for Another Location

Airport or City:

Trip Planner

Search our weather history database for the weather conditions in past years. The results will help you decide how hot, cold, wet, or windy it might be!

Date:

Astronomy

Jan. 03, 2013 Rise Set
Actual Time 8:10 AM MST 5:13 PM MST
Civil Twilight 7:37 AM MST 5:46 PM MST
Nautical Twilight 7:01 AM MST 6:22 PM MST
Astronomical Twilight 6:27 AM MST 6:56 PM MST
Moon No Moon Rise 11:11 AM MST (1/3)
Length of Visible Light 10h 08m
Length of Day
9h 03m
Waning Gibbous, 65% of the Moon is Illuminated
Jan 3
Waning Gibbous
Jan 4
Last Quarter
Jan 11
New
Jan 18
First Quarter
Jan 26
Full

Hourly Weather History & Observations

Time (MST) Temp. Windchill Dew Point Humidity Pressure Visibility Wind Dir Wind Speed Gust Speed Precip Events Conditions
12:15 AM 10.4 °F -2.4 °F 5.0 °F 79% 30.37 in 10.0 mi NW 9.2 mph - N/A   Clear
12:55 AM 10.4 °F -4.1 °F 5.0 °F 79% 30.36 in 10.0 mi NW 11.5 mph - N/A   Clear
1:15 AM 10.4 °F -4.1 °F 5.0 °F 79% 30.36 in 10.0 mi NW 11.5 mph - N/A   Clear
1:35 AM 10.4 °F -3.3 °F 5.0 °F 79% 30.35 in 10.0 mi NW 10.4 mph - N/A   Clear
1:55 AM 10.4 °F -4.8 °F 5.0 °F 79% 30.35 in 10.0 mi NW 12.7 mph - N/A   Clear
2:15 AM 10.4 °F -3.3 °F 5.0 °F 79% 30.35 in 10.0 mi NW 10.4 mph - N/A   Clear
2:35 AM 10.4 °F -4.8 °F 5.0 °F 79% 30.35 in 10.0 mi NW 12.7 mph - N/A   Clear
2:55 AM 10.4 °F -4.1 °F 5.0 °F 79% 30.35 in 10.0 mi NW 11.5 mph - N/A   Clear
3:15 AM 10.4 °F -4.1 °F 5.0 °F 79% 30.35 in 10.0 mi NW 11.5 mph - N/A   Clear
3:35 AM 10.4 °F -4.8 °F 5.0 °F 79% 30.36 in 10.0 mi NW 12.7 mph - N/A   Clear
3:55 AM 10.4 °F -3.3 °F 5.0 °F 79% 30.36 in 10.0 mi NW 10.4 mph - N/A   Clear
4:15 AM 10.4 °F -4.1 °F 5.0 °F 79% 30.35 in 10.0 mi NW 11.5 mph - N/A   Clear
4:35 AM 10.4 °F -5.4 °F 5.0 °F 79% 30.34 in 10.0 mi NW 13.8 mph - N/A   Clear
4:55 AM 10.4 °F -3.3 °F 5.0 °F 79% 30.34 in 10.0 mi NW 10.4 mph - N/A   Clear
5:15 AM 10.4 °F -4.1 °F 5.0 °F 79% 30.33 in 10.0 mi NW 11.5 mph - N/A   Clear
5:35 AM 10.4 °F -4.8 °F 5.0 °F 79% 30.33 in 10.0 mi NW 12.7 mph - N/A   Clear
5:55 AM 10.4 °F -4.8 °F 5.0 °F 79% 30.33 in 10.0 mi NW 12.7 mph - N/A   Clear
6:50 AM 10.4 °F -3.3 °F 3.2 °F 73% 30.32 in 7.0 mi NW 10.4 mph - N/A   Partly Cloudy
7:47 AM 10.4 °F -3.3 °F 3.2 °F 73% 30.32 in 7.0 mi NW 10.4 mph - N/A   Partly Cloudy
8:47 AM 10.4 °F -4.1 °F 3.2 °F 73% 30.33 in 10.0 mi WNW 11.5 mph - N/A   Partly Cloudy
9:47 AM 12.2 °F 0.7 °F 3.2 °F 67% 30.35 in 10.0 mi WNW 8.1 mph - N/A   Partly Cloudy
10:47 AM 17.6 °F 6.4 °F 6.8 °F 63% 30.36 in 10.0 mi WNW 9.2 mph - N/A   Partly Cloudy
11:47 AM 21.2 °F 10.1 °F 8.6 °F 58% 30.34 in 10.0 mi NW 10.4 mph - N/A   Partly Cloudy
12:47 PM 26.6 °F 17.5 °F 10.4 °F 51% 30.31 in 10.0 mi NW 9.2 mph - N/A   Partly Cloudy
1:47 PM 24.8 °F 14.6 °F 12.2 °F 59% 30.30 in 10.0 mi ESE 10.4 mph - N/A   Partly Cloudy
2:50 PM 23.0 °F 13.9 °F 10.4 °F 59% 30.31 in 10.0 mi SE 8.1 mph - N/A   Partly Cloudy
3:50 PM 21.2 °F 13.6 °F 10.4 °F 63% 30.31 in 10.0 mi ESE 5.8 mph - N/A   Partly Cloudy
4:47 PM 14.0 °F 5.1 °F 6.8 °F 73% 30.32 in 10.0 mi SE 5.8 mph - N/A   Partly Cloudy
5:47 PM 17.6 °F - 8.6 °F 68% 30.32 in 10.0 mi Calm Calm - N/A   Clear
6:47 PM 12.2 °F 0.7 °F 6.8 °F 79% 30.32 in 10.0 mi NW 8.1 mph - N/A   Clear
7:47 PM 10.4 °F -0.4 °F 6.8 °F 85% 30.32 in 10.0 mi NW 6.9 mph - N/A   Clear
8:47 PM 10.4 °F -4.1 °F 6.8 °F 85% 30.32 in 10.0 mi WNW 11.5 mph - N/A   Clear
9:47 PM 10.4 °F -3.3 °F 6.8 °F 85% 30.32 in 10.0 mi WNW 10.4 mph - N/A   Clear
10:15 PM 10.4 °F -3.3 °F 8.6 °F 92% 30.32 in 10.0 mi NW 10.4 mph - N/A   Clear
10:35 PM 12.2 °F -1.8 °F 8.6 °F 85% 30.32 in 10.0 mi NW 11.5 mph - N/A   Clear
10:47 PM 12.2 °F -1.0 °F 6.8 °F 79% 30.33 in 10.0 mi WNW 10.4 mph - N/A   Clear
10:55 PM 12.2 °F -0.2 °F 8.6 °F 85% 30.33 in 10.0 mi NW 9.2 mph - N/A   Clear
11:15 PM 12.2 °F -1.0 °F 8.6 °F 85% 30.33 in 10.0 mi NW 10.4 mph - N/A   Clear
11:35 PM 10.4 °F -4.1 °F 6.8 °F 85% 30.33 in 10.0 mi NW 11.5 mph - N/A   Clear
11:55 PM 12.2 °F -1.0 °F 6.8 °F 79% 30.34 in 10.0 mi NW 10.4 mph - N/A   Clear